[[{"header":{"parameterUnit":"m.s-1","parameterCategory":1,"la1":30.2991,"la2":30.254,"lo1":-89.0895,"lo2":-89.0444,"dy":0.0017,"dx":0.0017,"nx":28,"ny":28,"refTime":"2026-03-05T03:00:00:Z","depth":0,"parameterNumber":2,"parameterNumberName":"U-component_of_WINDS"},"data":[0,0,0,0,0,0,0,0,0,0,0,0,0,0,0,0,0,0,0,0,0,0,0,0,0,0,0,0,0,0,0,0,0,0,0,0,0,0,0,0,0,0,0,0,0,0,0,0,0,0,0,0,0,0,0,0,0,0,-3.7533,-3.7533,0,-3.752,-3.752,-3.7519,-3.7447,-3.7445,-3.7444,-3.7442,-3.743,-3.7431,-3.7433,0,0,0,0,0,0,0,0,0,0,0,0,0,-3.75,-3.7501,-3.7533,-3.7533,-3.7533,-3.752,-3.752,-3.7519,-3.7447,-3.7445,-3.7443,-3.7441,-3.743,-3.7431,-3.7433,0,0,0,0,0,0,0,0,0,0,0,0,0,-3.7504,-3.7502,-3.7533,-3.7495,-3.7492,-3.752,-3.752,-3.7519,-3.7448,-3.7445,-3.7443,-3.744,-3.7429,-3.7431,-3.7433,-3.7497,0,0,-3.7439,-3.744,0,0,0,0,0,0,0,0,-3.7504,-3.7505,-3.7501,-3.7498,-3.7494,-3.7482,-3.7503,-3.7512,-3.7448,-3.7465,-3.7442,-3.7439,-3.745,-3.745,-3.7453,-3.7496,-3.7496,-3.7439,-3.744,-3.7441,-3.7442,0,0,0,0,0,0,0,-3.7503,-3.7505,-3.7528,-3.7501,-3.7497,-3.748,-3.7478,-3.7505,-3.7472,-3.7463,-3.7458,-3.7457,-3.7447,-3.7451,-3.7452,-3.7496,-3.7439,-3.7441,-3.7442,-3.7443,-3.7593,-3.7595,0,0,0,0,0,0,-3.7508,-3.7505,-3.7528,-3.7528,-3.7492,-3.7483,-3.748,-3.7489,-3.7471,-3.7466,-3.7459,-3.7454,-3.7449,-3.745,-3.7452,-3.7525,-3.7441,-3.7443,-3.7444,-3.759,-3.7593,-3.7596,0,0,0,0,0,0,-3.7508,-3.7511,-3.7529,-3.7515,-3.7516,-3.7486,-3.7497,-3.749,-3.7494,-3.7469,-3.7463,-3.7469,-3.7447,-3.7449,-3.7486,-3.7524,-3.7444,-3.7446,-3.7587,-3.7591,-3.7595,-3.7674,0,0,0,0,0,0,-3.7507,-3.7511,-3.7534,-3.7516,-3.7517,-3.7563,-3.7499,-3.7492,-3.7497,-3.749,-3.7476,-3.7472,-3.7445,-3.7484,-3.7488,-3.7525,-3.7447,-3.7583,-3.7588,-3.7593,-3.7668,-3.768,-3.7691,0,0,0,0,0,-3.7506,-3.7557,-3.7536,-3.7539,-3.7545,-3.7565,-3.7566,-3.7534,-3.75,-3.7524,-3.7508,-3.7472,-3.752,-3.7488,-3.7493,-3.7531,-3.758,-3.7587,-3.7593,-3.7663,-3.7678,-3.7691,0,0,0,0,0,0,-3.758,-3.7554,-3.753,-3.7576,-3.7574,-3.7553,-3.7581,-3.7551,-3.7559,-3.7551,-3.7513,-3.751,-3.7554,-3.7546,-3.7512,-3.7593,-3.7544,-3.7552,-3.7596,-3.761,-3.7621,-3.7622,-3.7449,0,0,0,0,0,-3.7602,-3.762,-3.7596,-3.764,-3.764,-3.7611,-3.7619,-3.7595,-3.7591,-3.7589,-3.7576,-3.7574,-3.7589,-3.7599,-3.7611,-3.7667,-3.7664,-3.7696,-3.7708,-3.7718,-3.7724,-3.7754,-3.7768,-3.7617,-3.7617,-3.7617,0,0,-3.7647,-3.7635,-3.7648,-3.7654,-3.7649,-3.767,-3.761,-3.7634,-3.7649,-3.7593,-3.7627,-3.7618,-3.7614,-3.7661,-3.7681,-3.7656,-3.7765,-3.7726,-3.7733,-3.7735,-3.7762,-3.7776,-3.7789,-3.7621,-3.7621,-3.762,0,0,-3.7739,-3.7732,-3.7767,-3.7764,-3.7757,-3.7738,-3.7747,-3.7732,-3.7724,-3.7758,-3.7716,-3.7735,-3.7761,-3.7759,-3.7762,-3.7857,-3.7824,-3.7863,-3.7923,-3.7952,-3.7964,-3.7975,-3.8009,-3.8021,-3.787,-3.787,-3.787,0,-3.7795,-3.7823,-3.7789,-3.7816,-3.782,-3.7771,-3.7808,-3.7806,-3.7805,-3.7809,-3.7782,-3.7814,-3.7808,-3.7854,-3.7878,-3.7882,-3.7891,-3.7863,-3.7965,-3.7975,-3.7985,-3.8016,-3.8029,-3.7874,-3.7874,-3.7873,-3.7873,0,-3.7894,-3.7914,-3.7944,-3.7943,-3.7951,-3.7983,-3.7955,-3.7967,-3.7944,-3.7929,-3.7965,-3.7956,-3.7966,-3.7976,-3.7953,-3.802,-3.8005,-3.7972,-3.7922,-3.8004,-3.8033,-3.8045,-3.7881,-3.7879,-3.7878,-3.7877,0,0,-3.8029,-3.8011,-3.8022,-3.8022,-3.8012,-3.8028,-3.8059,-3.8068,-3.808,-3.8082,-3.8106,-3.8131,-3.8101,-3.8104,-3.8082,-3.8108,-3.8184,-3.8072,-3.8071,-3.8093,-3.8258,-3.8282,-3.8296,-3.8163,-3.8166,-3.8167,-3.8258,0,-3.8116,-3.8166,-3.8137,-3.8192,-3.8211,-3.8166,-3.8193,-3.8191,-3.8178,-3.8194,-3.818,-3.8198,-3.8157,-3.8159,-3.8183,-3.817,-3.8217,-3.8163,-3.8187,-3.8188,-3.8187,-3.8312,-3.8336,-3.8422,-3.827,-3.8271,-3.8273,0,-3.8224,-3.823,-3.8286,-3.8275,-3.8282,-3.8306,-3.8313,-3.8329,-3.8326,-3.8316,-3.8321,-3.8292,-3.8323,-3.8275,-3.8317,-3.8281,-3.829,-3.8285,-3.8288,-3.8288,-3.8234,-3.8314,-3.8449,-3.8462,-3.8291,-3.8289,-3.8288,0,-3.8317,-3.834,-3.8376,-3.8377,-3.8365,-3.8383,-3.8379,-3.8374,-3.8382,-3.839,-3.8395,-3.8406,-3.8412,-3.8422,-3.8397,-3.8365,-3.8443,-3.8393,-3.8435,-3.8436,-3.8452,-3.8451,-3.859,-3.846,-3.846,-3.846,-3.8459,0,-3.8417,-3.8453,-3.8417,-3.844,-3.8479,-3.8448,-3.8488,-3.848,-3.8476,-3.8497,-3.846,-3.8481,-3.8448,-3.8466,-3.8448,-3.8486,-3.8489,-3.8482,-3.8476,-3.8484,-3.8485,-3.8488,-3.8481,-3.8463,-3.8462,-3.8462,-3.8461,0,-3.8526,-3.8504,-3.854,-3.8526,-3.8524,-3.8554,-3.8542,-3.8563,-3.8549,-3.8576,-3.8581,-3.8559,-3.8579,-3.8556,-3.8574,-3.8561,-3.8613,-3.8599,-3.8613,-3.8609,-3.8652,-3.8648,-3.8796,-3.8814,-3.8674,-3.8676,-3.8677,0,-3.859,-3.8617,-3.8606,-3.8617,-3.8615,-3.8634,-3.8642,-3.8613,-3.8623,-3.8624,-3.8646,-3.8662,-3.8673,-3.8707,-3.8693,-3.8707,-3.8692,-3.8744,-3.8694,-3.8702,-3.8693,-3.8691,-3.8694,-3.8753,-3.8755,-3.8756,-3.8757,0,-3.8707,-3.8695,-3.8708,-3.8718,-3.8729,-3.8735,-3.8739,-3.8751,-3.8721,-3.8735,-3.8754,-3.8763,-3.8782,-3.8799,-3.8809,-3.8806,-3.8777,-3.8773,-3.8784,-3.8791,-3.8798,-3.8795,-3.8639,-3.8769,-3.8768,-3.8767,-3.8767,-3.8766,-3.8795,-3.8817,-3.8813,-3.8829,-3.8829,-3.8834,-3.8853,-3.8842,-3.8858,-3.887,-3.8853,-3.8877,-3.8876,-3.8887,-3.8888,-3.8908,-3.8886,-3.8901,-3.8904,-3.8908,-3.8915,-3.8797,-3.8909,-3.8909,-3.8909,-3.8908,-3.8908,0,-3.8909,-3.8905,-3.892,-3.8927,-3.894,-3.8912,-3.8916,-3.8929,-3.8951,-3.8952,-3.8965,-3.8988,-3.9005,-3.8994,-3.9008,-3.9026,-3.9013,-3.9031,-3.9029,-3.9029,-3.8933,-3.8923,-3.9041,-3.9041,-3.9041,-3.9041,-3.9041,-3.9041,-3.897,-3.9005,-3.8994,-3.903,-3.9026,-3.9049,-3.9054,-3.9059,-3.906,-3.9087,-3.9101,-3.9094,-3.9091,-3.9105,-3.912,-3.9117,-3.9123,-3.9146,-3.9138,-3.9048,-3.9035,-3.9023,-3.9012,-3.9148,-3.9148,-3.9231,-3.9232,-3.9232]},{"header":{"parameterUnit":"m.s-1","parameterCategory":1,"la1":30.2991,"la2":30.254,"lo1":-89.0895,"lo2":-89.0444,"dy":0.0017,"dx":0.0017,"nx":28,"ny":28,"refTime":"2026-03-05T03:00:00:Z","depth":0,"parameterNumber":3,"parameterNumberName":"V-component_of_WINDS"},"data":[0,0,0,0,0,0,0,0,0,0,0,0,0,0,0,0,0,0,0,0,0,0,0,0,0,0,0,0,0,0,0,0,0,0,0,0,0,0,0,0,0,0,0,0,0,0,0,0,0,0,0,0,0,0,0,0,0,0,1.6854,1.6854,0,1.6837,1.6836,1.6836,1.685,1.6851,1.6852,1.6852,1.683,1.6829,1.6828,0,0,0,0,0,0,0,0,0,0,0,0,0,1.6898,1.6897,1.6854,1.6854,1.6854,1.6837,1.6836,1.6836,1.685,1.6851,1.6852,1.6852,1.6831,1.6829,1.6828,0,0,0,0,0,0,0,0,0,0,0,0,0,1.688,1.6897,1.6854,1.6859,1.6859,1.6837,1.6836,1.6836,1.685,1.6851,1.6852,1.6853,1.6831,1.683,1.6828,1.6799,0,0,1.6823,1.6822,0,0,0,0,0,0,0,0,1.6881,1.6878,1.6858,1.6859,1.6859,1.6847,1.6844,1.6823,1.685,1.6853,1.6852,1.6853,1.6835,1.6833,1.6827,1.6798,1.6797,1.6822,1.6821,1.6821,1.682,0,0,0,0,0,0,0,1.6882,1.6879,1.6847,1.6858,1.6858,1.6861,1.686,1.684,1.6839,1.6853,1.6854,1.6852,1.6835,1.6829,1.6827,1.6797,1.6822,1.6821,1.682,1.6819,1.6745,1.6744,0,0,0,0,0,0,1.6883,1.688,1.6848,1.6847,1.6872,1.686,1.6858,1.685,1.6839,1.6839,1.6851,1.6853,1.6832,1.6829,1.6826,1.6793,1.6821,1.6819,1.6818,1.6746,1.6745,1.6744,0,0,0,0,0,0,1.6884,1.688,1.6848,1.6864,1.686,1.6858,1.6849,1.6849,1.6843,1.6838,1.6838,1.6845,1.6832,1.6829,1.6806,1.6793,1.6818,1.6817,1.6747,1.6745,1.6744,1.6726,0,0,0,0,0,0,1.6885,1.688,1.687,1.6863,1.6859,1.6829,1.6848,1.6848,1.684,1.6842,1.6832,1.6832,1.6833,1.6809,1.6805,1.6791,1.6815,1.6748,1.6746,1.6745,1.6728,1.6724,1.6721,0,0,0,0,0,1.6887,1.6864,1.6869,1.6865,1.6846,1.6828,1.6826,1.6828,1.6839,1.6828,1.6826,1.6832,1.6795,1.6806,1.6802,1.6787,1.6749,1.6747,1.6745,1.6729,1.6725,1.6721,0,0,0,0,0,0,1.6866,1.6863,1.6869,1.6843,1.6836,1.6831,1.6817,1.6823,1.6812,1.6814,1.6817,1.6814,1.6791,1.6787,1.68,1.676,1.6774,1.677,1.6764,1.6759,1.6756,1.6758,1.6814,0,0,0,0,0,1.6859,1.6847,1.6844,1.6822,1.6818,1.6818,1.6811,1.6814,1.6806,1.6803,1.6798,1.679,1.6777,1.6768,1.6755,1.6728,1.6726,1.6715,1.6712,1.6709,1.6706,1.6694,1.6689,1.6737,1.6737,1.6737,0,0,1.6844,1.684,1.6832,1.6818,1.6813,1.6799,1.6815,1.68,1.679,1.68,1.678,1.6776,1.6767,1.6743,1.6732,1.6738,1.6693,1.6707,1.6704,1.6703,1.6691,1.6686,1.6682,1.6735,1.6735,1.6736,0,0,1.6809,1.6805,1.6787,1.6783,1.6776,1.6776,1.6772,1.6766,1.6765,1.6745,1.6753,1.6741,1.6717,1.6711,1.6705,1.6671,1.6677,1.6667,1.6649,1.6636,1.6633,1.6629,1.6618,1.6614,1.6664,1.6664,1.6664,0,1.679,1.6771,1.6777,1.6762,1.6756,1.6766,1.6748,1.6743,1.6732,1.6727,1.6735,1.6708,1.6702,1.6678,1.667,1.6664,1.666,1.6668,1.6633,1.663,1.6627,1.6616,1.6612,1.6663,1.6663,1.6663,1.6663,0,1.6749,1.6736,1.6723,1.6714,1.6706,1.6689,1.6692,1.6684,1.6688,1.6688,1.6668,1.6662,1.665,1.6644,1.6647,1.662,1.6625,1.6633,1.6647,1.6621,1.6611,1.6607,1.6661,1.6662,1.6662,1.6662,0,0,1.67,1.6697,1.6691,1.6689,1.6683,1.6673,1.6657,1.6646,1.664,1.6632,1.6619,1.6601,1.6609,1.6602,1.6605,1.6593,1.6569,1.6603,1.6603,1.6598,1.6541,1.6535,1.6531,1.6573,1.6572,1.6572,1.6542,0,1.6666,1.664,1.6646,1.662,1.6609,1.662,1.6607,1.6602,1.6602,1.6592,1.6591,1.6579,1.659,1.6586,1.6576,1.6574,1.6558,1.6576,1.6561,1.6561,1.6564,1.6525,1.6519,1.6491,1.6538,1.6537,1.6537,0,1.6622,1.6616,1.659,1.6589,1.6584,1.6572,1.6564,1.6554,1.6549,1.655,1.6544,1.6549,1.6534,1.6548,1.6528,1.6541,1.6535,1.6534,1.6533,1.6531,1.6547,1.6524,1.6482,1.6478,1.6531,1.6531,1.6532,0,1.6591,1.6575,1.6558,1.6555,1.6552,1.6544,1.6542,1.6539,1.6533,1.6525,1.6522,1.6512,1.6507,1.6499,1.6502,1.6512,1.6481,1.6496,1.6482,1.6482,1.6475,1.6475,1.6432,1.647,1.647,1.647,1.647,0,1.6552,1.6536,1.6544,1.6534,1.6516,1.6523,1.6506,1.6505,1.6502,1.6492,1.65,1.649,1.6494,1.6485,1.6487,1.647,1.6467,1.6468,1.6469,1.6467,1.6467,1.6464,1.6466,1.6469,1.6469,1.647,1.647,0,1.6513,1.6518,1.6501,1.6501,1.6501,1.6488,1.6488,1.6478,1.648,1.6467,1.6464,1.6466,1.6455,1.6458,1.6445,1.6447,1.6426,1.6429,1.6429,1.6429,1.6416,1.6418,1.6369,1.6364,1.6405,1.6404,1.6404,0,1.6489,1.6477,1.6477,1.6472,1.647,1.6461,1.6456,1.6462,1.6456,1.6452,1.6443,1.6433,1.6426,1.6408,1.6408,1.6399,1.6402,1.6386,1.6401,1.6401,1.6403,1.6404,1.6404,1.6383,1.6383,1.6382,1.6382,0,1.6446,1.6449,1.6442,1.6437,1.6431,1.6426,1.6422,1.6417,1.6423,1.6416,1.6406,1.6401,1.639,1.638,1.6373,1.6371,1.6377,1.6378,1.6374,1.6373,1.6374,1.6374,1.6421,1.6379,1.6379,1.6379,1.6379,1.6379,1.6414,1.6405,1.6405,1.6397,1.6395,1.6392,1.6384,1.6385,1.6378,1.637,1.6374,1.6363,1.636,1.6351,1.6348,1.634,1.6346,1.634,1.6339,1.6338,1.6337,1.6375,1.6338,1.6338,1.6338,1.6338,1.6338,0,1.6372,1.6373,1.6366,1.6362,1.6356,1.6365,1.6361,1.6356,1.6346,1.6344,1.6337,1.6327,1.6319,1.6319,1.6311,1.6304,1.6308,1.6302,1.6303,1.6303,1.6331,1.6335,1.63,1.63,1.63,1.63,1.63,1.63,1.635,1.6336,1.634,1.6325,1.6326,1.6317,1.6314,1.6311,1.631,1.6298,1.6292,1.6293,1.6292,1.6285,1.6277,1.6278,1.6275,1.6269,1.627,1.6297,1.63,1.6304,1.6308,1.6268,1.6268,1.6243,1.6242,1.6242]}]]